GCEND KCNC-KDSM

Flight info

Callsign GCEND
Flight time 0h 23m
Altitude 2500
Route KCNC / LACONA / HARTFORD / /KDSM
Aircraft C172/L-VGDW/C

Departure

Time 2026-04-27 08:35
Airport Chariton Municipal Airport (KCNC)

Arrival

Time 2026-04-27 08:58
Airport Des Moines International Airport (KDSM)
Time Latitude Longitude Altitude Speed Heading
2026-04-27 08:19 41.01762 -93.36201 1042 ft 0 kts 181°
2026-04-27 08:31 41.01758 -93.36201 1042 ft 4 kts 193°
2026-04-27 08:31 41.01749 -93.36248 1043 ft 5 kts 273°
2026-04-27 08:32 41.01750 -93.36261 1043 ft 0 kts 271°
2026-04-27 08:32 41.01749 -93.36278 1043 ft 0 kts 264°
2026-04-27 08:32 41.01763 -93.36324 1043 ft 13 kts 342°
2026-04-27 08:32 41.01926 -93.36326 1041 ft 33 kts 358°
2026-04-27 08:33 41.02028 -93.36327 1040 ft 0 kts 354°
2026-04-27 08:33 41.02052 -93.36328 1040 ft 8 kts 14°
2026-04-27 08:33 41.02065 -93.36272 1039 ft 0 kts 102°
2026-04-27 08:34 41.02063 -93.36260 1039 ft 13 kts 102°
2026-04-27 08:34 41.01999 -93.35860 1040 ft 69 kts 103°
2026-04-27 08:34 41.01910 -93.35189 1207 ft 74 kts 103°
2026-04-27 08:34 41.01812 -93.34474 1354 ft 84 kts 101°
2026-04-27 08:35 41.01712 -93.33679 1528 ft 89 kts 101°
2026-04-27 08:35 41.01805 -93.32877 1710 ft 95 kts 59°
2026-04-27 08:35 41.02349 -93.32381 1903 ft 98 kts 18°
2026-04-27 08:35 41.03037 -93.32372 2086 ft 100 kts 349°
2026-04-27 08:36 41.03711 -93.32595 2262 ft 101 kts 340°
2026-04-27 08:36 41.04395 -93.32891 2432 ft 103 kts 340°
2026-04-27 08:36 41.05089 -93.33187 2522 ft 112 kts 340°
2026-04-27 08:36 41.05864 -93.33517 2502 ft 119 kts 341°
2026-04-27 08:37 41.06662 -93.33857 2498 ft 121 kts 341°
2026-04-27 08:37 41.07472 -93.34202 2497 ft 122 kts 341°
2026-04-27 08:37 41.08290 -93.34551 2499 ft 122 kts 341°
2026-04-27 08:37 41.09101 -93.34896 2498 ft 123 kts 341°
2026-04-27 08:38 41.09911 -93.35241 2495 ft 123 kts 341°
2026-04-27 08:38 41.10726 -93.35587 2500 ft 122 kts 341°
2026-04-27 08:38 41.11538 -93.35932 2499 ft 122 kts 342°
2026-04-27 08:38 41.12357 -93.36248 2497 ft 122 kts 343°
2026-04-27 08:39 41.13179 -93.36558 2497 ft 122 kts 343°
2026-04-27 08:39 41.14005 -93.36861 2494 ft 123 kts 345°
2026-04-27 08:39 41.14838 -93.37138 2499 ft 122 kts 345°
2026-04-27 08:39 41.15664 -93.37412 2496 ft 123 kts 345°
2026-04-27 08:40 41.16492 -93.37683 2499 ft 122 kts 345°
2026-04-27 08:40 41.17322 -93.37956 2498 ft 122 kts 345°
2026-04-27 08:40 41.18142 -93.38227 2495 ft 122 kts 345°
2026-04-27 08:40 41.18995 -93.38374 2495 ft 122 kts 358°
2026-04-27 08:41 41.19842 -93.38399 2498 ft 122 kts 359°
2026-04-27 08:41 41.20706 -93.38429 2501 ft 122 kts 359°
2026-04-27 08:41 41.21555 -93.38464 2498 ft 123 kts 358°
2026-04-27 08:41 41.22413 -93.38505 2498 ft 123 kts 357°
2026-04-27 08:42 41.23275 -93.38558 2498 ft 122 kts 357°
2026-04-27 08:42 41.24122 -93.38612 2498 ft 122 kts 357°
2026-04-27 08:42 41.24982 -93.38666 2496 ft 123 kts 358°
2026-04-27 08:42 41.25843 -93.38721 2499 ft 123 kts 357°
2026-04-27 08:43 41.26698 -93.38773 2496 ft 123 kts 358°
2026-04-27 08:43 41.27550 -93.38828 2499 ft 122 kts 358°
2026-04-27 08:43 41.28403 -93.38884 2497 ft 123 kts 357°
2026-04-27 08:43 41.29260 -93.38938 2496 ft 123 kts 357°
2026-04-27 08:44 41.30107 -93.38991 2497 ft 122 kts 358°
2026-04-27 08:44 41.30967 -93.39044 2495 ft 122 kts 357°
2026-04-27 08:44 41.31821 -93.39099 2495 ft 122 kts 357°
2026-04-27 08:44 41.32666 -93.39150 2496 ft 122 kts 358°
2026-04-27 08:45 41.33516 -93.39201 2496 ft 122 kts 358°
2026-04-27 08:45 41.34369 -93.39253 2500 ft 122 kts 357°
2026-04-27 08:45 41.35229 -93.39304 2496 ft 122 kts 357°
2026-04-27 08:45 41.36084 -93.39355 2497 ft 123 kts 357°
2026-04-27 08:46 41.36935 -93.39407 2500 ft 123 kts 358°
2026-04-27 08:46 41.37796 -93.39459 2493 ft 123 kts 357°
2026-04-27 08:46 41.38649 -93.39510 2496 ft 122 kts 357°
2026-04-27 08:46 41.39500 -93.39562 2496 ft 123 kts 357°
2026-04-27 08:47 41.40358 -93.39613 2497 ft 123 kts 357°
2026-04-27 08:47 41.41214 -93.39665 2497 ft 122 kts 358°
2026-04-27 08:47 41.42059 -93.39714 2498 ft 123 kts 357°
2026-04-27 08:47 41.42923 -93.39766 2496 ft 123 kts 357°
2026-04-27 08:48 41.43775 -93.39816 2499 ft 123 kts 358°
2026-04-27 08:48 41.44638 -93.39867 2496 ft 123 kts 358°
2026-04-27 08:48 41.45472 -93.40045 2497 ft 122 kts 332°
2026-04-27 08:48 41.46068 -93.40815 2501 ft 120 kts 300°
2026-04-27 08:49 41.46456 -93.41801 2493 ft 120 kts 294°
2026-04-27 08:49 41.46867 -93.42769 2495 ft 120 kts 296°
2026-04-27 08:49 41.47286 -93.43736 2499 ft 120 kts 297°
2026-04-27 08:49 41.47697 -93.44691 2497 ft 120 kts 297°
2026-04-27 08:50 41.48114 -93.45664 2498 ft 120 kts 296°
2026-04-27 08:50 41.48527 -93.46630 2496 ft 120 kts 296°
2026-04-27 08:50 41.48941 -93.47591 2499 ft 120 kts 296°
2026-04-27 08:50 41.49355 -93.48555 2500 ft 120 kts 296°
2026-04-27 08:51 41.49779 -93.49530 2501 ft 120 kts 296°
2026-04-27 08:51 41.50138 -93.50536 2495 ft 119 kts 292°
2026-04-27 08:51 41.50498 -93.51530 2492 ft 119 kts 292°
2026-04-27 08:51 41.50861 -93.52509 2493 ft 119 kts 292°
2026-04-27 08:52 41.51228 -93.53507 2497 ft 119 kts 292°
2026-04-27 08:52 41.51599 -93.54511 2427 ft 122 kts 293°
2026-04-27 08:52 41.51973 -93.55518 2301 ft 121 kts 293°
2026-04-27 08:52 41.52341 -93.56519 2175 ft 120 kts 293°
2026-04-27 08:53 41.52711 -93.57527 2050 ft 119 kts 293°
2026-04-27 08:53 41.53076 -93.58517 1960 ft 116 kts 293°
2026-04-27 08:53 41.53416 -93.59440 1974 ft 108 kts 292°
2026-04-27 08:53 41.53743 -93.60317 1979 ft 105 kts 293°
2026-04-27 08:54 41.54088 -93.61178 1980 ft 105 kts 302°
2026-04-27 08:54 41.54547 -93.61933 1983 ft 105 kts 310°
2026-04-27 08:54 41.55065 -93.62622 1982 ft 105 kts 313°
2026-04-27 08:54 41.55593 -93.63310 1982 ft 105 kts 313°
2026-04-27 08:55 41.56117 -93.63987 1979 ft 101 kts 313°
2026-04-27 08:55 41.56600 -93.64613 1989 ft 88 kts 314°
2026-04-27 08:55 41.57022 -93.65149 1981 ft 80 kts 313°
2026-04-27 08:55 41.57423 -93.65654 1977 ft 77 kts 312°
2026-04-27 08:56 41.57692 -93.66227 1986 ft 71 kts 270°
2026-04-27 08:56 41.57559 -93.66833 2038 ft 74 kts 229°
2026-04-27 08:56 41.57201 -93.67388 2046 ft 79 kts 220°
2026-04-27 08:56 41.56789 -93.67877 1972 ft 79 kts 217°
2026-04-27 08:57 41.55861 -93.68463 1746 ft 78 kts 174°
2026-04-27 08:57 41.55307 -93.68347 1547 ft 81 kts 164°
2026-04-27 08:57 41.54853 -93.67914 1355 ft 84 kts 128°
2026-04-27 08:58 41.54482 -93.67316 1135 ft 84 kts 137°
2026-04-27 08:58 41.54115 -93.66778 1007 ft 70 kts 135°
2026-04-27 08:58 41.53816 -93.66345 942 ft 59 kts 132°
2026-04-27 08:58 41.53584 -93.66022 923 ft 33 kts 128°
2026-04-27 08:59 41.53492 -93.65872 928 ft 15 kts 90°
2026-04-27 08:59 41.53530 -93.65790 930 ft 0 kts 57°
2026-04-27 08:59 41.53560 -93.65781 930 ft 14 kts 332°
2026-04-27 09:00 41.53669 -93.65926 927 ft 24 kts 328°
2026-04-27 09:00 41.53769 -93.66065 925 ft 21 kts 351°
2026-04-27 09:00 41.53849 -93.65998 930 ft 15 kts 32°
2026-04-27 09:00 41.53877 -93.66000 931 ft 0 kts 179°